Location: Observatoire
(46.1952°N, 5.3391°E)
Time: 18:09:51
(UTC+01:00)

Injun/Solrad 3 - Pass Details

Date: 23 February 2026
Orbit: 872 x 984 km, 66.8° (Epoch: 8 March)

Event Time Altitude Azimuth Distance (km) Brightness Sun altitude
Rises 20:10:26 0° 321° (NW) 3,587 11.7 -20.5°
Reaches altitude 10° 20:13:04 10° 315° (NW) 2,657 11.0 -20.9°
Maximum altitude 20:18:47 40° 247° (WSW) 1,368 9.2 -21.9°
Drops below altitude 10° 20:24:37 10° 180° (S) 2,705 10.2 -22.9°
Sets 20:27:20 0° 173° (S) 3,659 10.8 -23.4°
